Weather History for Montreal Mirabel, QC

Change the Weather History Date:

Thursday, September 26, 2013

  Actual Average Record
Temperature  
Mean Temperature 52 °F -  
Max Temperature 64 °F 62 °F 77 °F (2007)
Min Temperature 41 °F 42 °F 35 °F (1997)
Degree Days  
Heating Degree Days 12    
Growing Degree Days 2 (Base 50)    
Moisture  
Dew Point 46 °F    
Average Humidity 84    
Maximum Humidity 100    
Minimum Humidity 56    
Precipitation  
Precipitation 0.00 in - - ()
Sea Level Pressure  
Sea Level Pressure 30.15 in    
Wind  
Wind Speed 3 mph ()    
Max Wind Speed 7 mph    
Max Gust Speed -    
Averages and records for this station are not official NWS values.
T = Trace of Precipitation, MM = Missing Value Source: Averaged Metar Reports

Daily Weather History Graph

Daily Weather History Graph

Search for Another Location

Airport:

Trip Planner

Search our weather history database for the weather conditions in past years. The results will help you decide how hot, cold, wet, or windy it might be!

Date:

Astronomy

Sep. 26, 2013 Rise Set
Actual Time 6:48 AM EDT 6:45 PM EDT
Civil Twilight 6:18 AM EDT 7:15 PM EDT
Nautical Twilight 5:44 AM EDT 7:49 PM EDT
Astronomical Twilight 5:08 AM EDT 8:24 PM EDT
Moon 11:26 PM EDT (9/26) 1:54 PM EDT (9/26)
Length of Visible Light 12h 56m
Length of Day
11h 57m
Waning Gibbous, 55% of the Moon is Illuminated
Sep 26
Waning Gibbous
Sep 26
Last Quarter
Oct 4
New
Oct 11
First Quarter
Oct 18
Full

Hourly Weather History & Observations

Time (EDT) Temp. Windchill Dew Point Humidity Pressure Visibility Wind Dir Wind Speed Gust Speed Precip Events Conditions
12:00 AM 44.6 °F - 44.6 °F 100% 30.07 in 25.0 mi NNE 2.3 mph - N/A   Clear
1:00 AM 44.6 °F - 42.8 °F 93% 30.09 in 25.0 mi NNE 2.3 mph - N/A   Clear
2:00 AM 42.8 °F - 42.8 °F 100% 30.08 in 25.0 mi Calm Calm - N/A   Clear
3:00 AM 41.0 °F - 41.0 °F 100% 30.08 in 25.0 mi NE 2.3 mph - N/A Fog Patches of Fog
4:00 AM 42.8 °F 41.1 °F 42.8 °F 100% 30.09 in 25.0 mi NE 3.5 mph - N/A Fog Patches of Fog
5:00 AM 41.0 °F - 41.0 °F 100% 30.10 in 25.0 mi North 2.3 mph - N/A   Clear
6:00 AM 41.0 °F 39.0 °F 41.0 °F 100% 30.12 in 25.0 mi NE 3.5 mph - N/A   Partly Cloudy
7:00 AM 42.8 °F 41.1 °F 41.0 °F 93% 30.14 in 25.0 mi East 3.5 mph - N/A   Partly Cloudy
8:00 AM 44.6 °F - 42.8 °F 93% 30.15 in 40.0 mi North 2.3 mph - N/A   Partly Cloudy
9:00 AM 50.0 °F - 46.4 °F 87% 30.16 in 40.0 mi North 3.5 mph - N/A   Partly Cloudy
10:00 AM 55.4 °F - 48.2 °F 77% 30.17 in 40.0 mi ENE 4.6 mph - N/A   Scattered Clouds
11:00 AM 55.4 °F - 48.2 °F 77% 30.17 in 25.0 mi NE 5.8 mph - N/A   Mostly Cloudy
12:00 PM 59.0 °F - 48.2 °F 67% 30.17 in 25.0 mi North 3.5 mph - N/A   Mostly Cloudy
1:00 PM 60.8 °F - 48.2 °F 63% 30.16 in 25.0 mi North 3.5 mph - N/A   Overcast
2:00 PM 62.6 °F - 50.0 °F 63% 30.16 in 45.0 mi East 5.8 mph - N/A   Mostly Cloudy
3:00 PM 64.4 °F - 50.0 °F 59% 30.16 in 45.0 mi ENE 2.3 mph - N/A   Scattered Clouds
4:00 PM 64.4 °F - 48.2 °F 56% 30.16 in 45.0 mi ENE 6.9 mph - N/A   Partly Cloudy
5:00 PM 64.4 °F - 50.0 °F 59% 30.17 in 45.0 mi East 4.6 mph - N/A   Partly Cloudy
6:00 PM 60.8 °F - 50.0 °F 68% 30.17 in 45.0 mi ESE 5.8 mph - N/A   Partly Cloudy
7:00 PM 55.4 °F - 50.0 °F 82% 30.18 in 25.0 mi SSE 2.3 mph - N/A   Partly Cloudy
8:00 PM 51.8 °F - 48.2 °F 88% 30.19 in 25.0 mi Calm Calm - N/A   Partly Cloudy
9:00 PM 48.2 °F - 48.2 °F 100% 30.20 in 25.0 mi Calm Calm - N/A   Partly Cloudy
10:00 PM 50.0 °F - 48.2 °F 94% 30.22 in 25.0 mi NNW 2.3 mph - N/A   Partly Cloudy
11:00 PM 48.2 °F - 48.2 °F 100% 30.22 in 25.0 mi Calm Calm - N/A   Partly Cloudy